Lid_Strength_Index
3 3 3 2 2 3 3 3 2 2 2 2 1 1 1 1 1 3 6 3 3 -3 -1 3 4 4 5 5 7 8 8 9 9 10 8 6 7 5 4 5 5 4 4 3 2
3 3 3 3 3 3 3 3 3 3 2 2 2 2 1 1 3 5 1 -2 -3 -3 3 3 5 4 5 5 5 7 8 8 7 8 7 6 6 6 6 6 6 5 3 2 2
3 3 3 3 3 3 3 3 3 3 3 2 2 2 1 2 6 5 -3 -3 -4 -1 2 3 4 4 5 5 6 7 8 8 7 6 5 6 6 5 6 7 5 5 5 3 3
3 3 3 3 3 3 3 3 3 3 3 3 2 2 2 3 8 3 -2 -3 -4 1 3 4 4 5 6 6 6 7 6 7 7 6 5 6 5 6 5 5 3 3 3 3 4
4 3 4 4 4 3 3 3 3 3 3 3 2 2 3 7 7 3 -2 -2 -0 3 4 4 4 5 6 6 6 7 6 6 6 7 4 5 6 6 6 4 3 3 3 4 3
4 4 4 4 4 3 4 4 4 4 3 3 2 1 5 9 5 1 -0 2 3 3 4 4 4 4 5 6 6 6 6 6 7 8 7 6 6 6 5 3 4 4 4 4 3
3 4 4 4 4 4 4 4 4 4 3 2 2 2 5 6 3 2 3 4 3 3 4 4 3 4 5 6 5 6 6 6 7 8 6 4 7 7 4 4 4 5 4 4 3
3 4 4 4 4 4 4 4 3 2 3 2 1 2 6 4 4 2 3 3 3 3 3 3 3 4 5 5 6 6 7 8 6 6 6 6 8 5 4 5 5 5 5 4 4
3 4 4 4 4 4 4 4 3 2 1 0 3 5 7 2 4 3 2 4 3 3 3 3 4 6 6 7 7 7 9 8 8 7 6 6 8 5 5 5 6 5 5 5 4
3 4 4 4 4 4 4 4 2 1 1 1 2 6 5 5 4 4 2 3 4 4 5 5 6 7 7 7 11 9 9 9 8 7 6 7 7 5 5 5 6 5 5 5 4
4 5 5 5 4 5 5 4 5 6 5 7 7 7 6 4 3 4 3 4 4 5 7 6 7 9 8 8 8 8 9 9 8 7 8 7 7 6 5 6 6 5 5 5 5
5 5 5 5 5 5 6 6 7 7 8 6 5 5 5 4 6 4 3 5 5 7 7 7 9 7 7 8 8 9 9 8 7 7 7 8 7 7 5 6 5 5 5 5 4
5 5 5 5 6 7 8 6 7 6 8 7 6 6 5 5 6 6 4 5 6 7 7 8 8 7 7 8 8 8 8 8 8 8 7 8 8 7 6 6 5 5 5 4 5
6 6 6 6 8 9 9 7 8 7 9 9 8 6 5 5 6 4 3 4 6 7 7 7 7 8 8 8 7 9 7 7 8 8 10 8 11 8 8 7 6 6 6 5 5
6 6 6 6 9 11 9 9 7 7 14 8 8 5 5 6 5 5 3 5 7 7 7 8 8 8 8 8 7 8 7 7 8 9 9 9 10 9 7 8 7 7 6 6 5
6 6 6 8 9 9 9 8 6 10 15 9 8 8 7 6 6 5 5 4 5 7 7 7 6 7 7 7 7 6 8 8 8 9 11 10 10 9 9 9 8 7 7 6 5
6 7 7 8 10 9 8 6 11 14 9 10 10 8 8 9 8 6 7 7 8 10 10 8 7 6 6 7 7 7 9 11 12 12 12 10 10 9 9 8 8 8 7 6 5
5 6 8 8 7 8 9 8 14 12 11 8 8 9 10 9 8 8 8 8 7 8 9 10 11 8 6 7 8 8 8 12 15 14 11 10 12 10 8 7 7 6 6 6 6
5 7 8 8 7 8 8 12 12 12 10 10 9 10 11 9 9 8 8 8 7 6 9 10 10 7 7 7 6 9 10 8 11 11 12 10 10 8 8 8 7 7 6 6 6
8 8 8 6 5 7 10 13 12 10 8 10 12 9 11 10 10 9 9 7 8 6 5 8 11 7 7 6 7 7 7 11 10 15 15 12 12 11 10 9 8 8 7 6 6
9 10 7 5 5 8 12 11 10 9 8 10 10 10 10 9 9 10 10 8 6 7 6 7 9 9 7 8 8 8 9 10 10 11 14 14 12 8 8 7 8 7 6 6 6
12 13 6 5 8 8 11 9 8 8 8 9 8 9 10 9 9 9 9 8 6 7 8 6 8 10 9 7 7 8 8 9 11 14 12 12 11 7 7 6 6 6 6 5 6
12 12 6 5 10 9 8 8 7 9 9 10 10 8 7 8 9 8 8 6 7 7 7 7 9 12 11 9 8 9 9 8 10 10 13 15 12 7 7 7 6 6 6 5 6
12 13 8 7 6 8 8 8 8 6 7 7 8 7 7 8 8 8 8 7 6 6 6 6 9 10 13 10 9 11 10 9 10 12 12 12 10 9 8 8 7 6 6 5 6
12 13 10 10 9 7 7 8 8 9 6 6 7 7 8 10 9 9 8 7 6 6 7 7 11 10 10 9 9 10 10 10 10 10 11 10 11 8 7 7 6 6 6 6 6
12 11 9 9 9 9 8 9 9 8 8 8 8 7 7 9 8 9 8 8 8 7 7 7 11 10 11 9 9 10 9 9 10 9 10 10 10 7 6 6 6 6 6 6 6
8 9 9 10 10 10 9 8 8 7 6 6 6 7 8 7 6 6 6 6 6 7 8 9 10 11 13 11 10 12 10 9 9 8 9 11 8 7 7 7 6 6 6 6 6